Regional Weather Roundup
Issued by NWS

Home | Current Version | Previous Version | Text Only | Print | Product List | Glossary On
Versions: 1 2 3 4 5 6 7 8 9 10 11 12 13 14 15 16 17 18 19 20 21 22 23 24 25 26 27
000
ASUS45 KSLC 272110
RWRUT

UTAH REGIONAL WEATHER ROUNDUP
NATIONAL WEATHER SERVICE SALT LAKE CITY UT
300 PM MDT SAT MAY 27 2017

UTZ001>011-023>025-272200-

NORTHERN UTAH

CITY           SKY/WX    TMP DP  RH WIND       PRES   REMARKS
BRIGHAM CITY   SUNNY     67  31  26 SE3       30.21F
HILL AFB       SUNNY     64  34  32 NW9       30.22F
LOGAN          MOSUNNY   68  36  30 N6        30.21F
OGDEN          SUNNY     66  36  32 W9        30.21F
SALT LAKE CITY MOSUNNY   68  36  30 NW14      30.22S
TOOELE VALLEY  SUNNY     64  36  34 N8        30.24S
WENDOVER       SUNNY     69  31  24 E10G18    30.22F
HEBER CITY     SUNNY     68  25  19 NE10G16   30.19S
WEST JORDAN    SUNNY     65  46  48 N15G21    30.23S

$$

UTZ011>015-024>027-272200-

CENTRAL/NORTHEAST UTAH

CITY           SKY/WX    TMP DP  RH WIND       PRES   REMARKS
PROVO AIRPORT  SUNNY     66  38  35 NW9       30.21S
MOAB/CANYONLAN SUNNY     76  14   9 W7        30.06F
DELTA          MOSUNNY   70  27  19 N6G13     30.18F
PRICE          PTSUNNY   67  23  19 SW9       30.14S
ROOSEVELT      SUNNY     70  28  21 SE10      30.18S
VERNAL         PTSUNNY   69  27  20 MISG      30.16S

$$

UTZ013>016-019>022-027-272200-

SOUTHERN UTAH

CITY           SKY/WX    TMP DP  RH WIND       PRES   REMARKS
BRYCE CANYON   SUNNY     65  15  14 VRB6G21   30.23F
CEDAR CITY     SUNNY     70  24  17 NW7       30.17S
MILFORD        SUNNY     71  28  20 NE15G23   30.17F
ST GEORGE      CLEAR     82  33  17 CALM      30.01F
HANKSVILLE     SUNNY     77  21  12 N5G24     30.09S
BLANDING       SUNNY     73  16  11 W5G21     30.17S

$$

REGIONAL REPORTS     COLORADO/ARIZONA

CITY           SKY/WX    TMP DP  RH WIND       PRES   REMARKS
CRAIG, CO      CLOUDY    60  33  36 N12G18    30.21R
GRAND JUNCTION MOSUNNY   73  27  18 W12G20    30.09S
RIFLE, CO      SUNNY     63  32  31 VRB7G22   30.15S
MONTROSE, CO   MOSUNNY   68  28  22 N12       30.13S
CORTEZ, CO     SUNNY     73  26  17 NW9G17    30.10F
COLORADO CITY    N/A     81  32  17 NW7       30.13S
PAGE, AZ       MOSUNNY   81  28  14 CALM      30.04F
GRAND CANYON   SUNNY     72  24  16 MISG      30.19F
KINGMAN, AZ    SUNNY     85  32  15 CALM      30.03F
FLAGSTAFF, AZ  MOSUNNY   71  21  15 SW20G25   30.19F

$$

REGIONAL REPORTS    NEVADA/IDAHO/WYOMING

CITY           SKY/WX    TMP DP  RH WIND       PRES   REMARKS
LAS VEGAS, NV  MOSUNNY   88  24  10 CALM      29.96F
ELY, NY        SUNNY     67  22  18 VRB5      30.22F
ELKO, NV       SUNNY     70  26  19 CALM      30.21F
POCATELLO, ID  MOSUNNY   65  41  41 NW6       30.25S
BURLEY, ID     SUNNY     68  36  30 CALM      30.22S
FORT BRIDGER,  MOCLDY    62  27  25 W10G16    30.29S
EVANSTON, WY   PTSUNNY   58  26  29 NW6G18    30.28R
ROCK SPRINGS,  CLOUDY    56  28  34 E6        30.24S
KEMMERER, WY     N/A     57  27  30 NW8G16    30.26F

$$




USA.gov is the U.S. government's official web portal to all federal, state and local government web resources and services.